Theta_e
293 293 293 293 293 293 293 292 292 292 292 292 291 291 291 290 290 290 290 289 289 289 289 289 289 289 289 289 289 289 289 289 289 289 289 290 291 291 290 290 289 289 289 290 290 291 292 293 293 293 293 293 293 293 293 293 293 293 293 293 293 293 292 293 293 293 292 292 292 292 292 292 292 292 292 292 293 293 293 294 294 294 295 295 295 296
292 293 293 292 292 292 292 292 292 292 291 291 291 291 290 290 290 290 290 289 289 289 289 289 289 289 289 289 289 289 289 289 289 289 289 290 290 290 290 289 289 288 289 290 290 291 291 292 293 293 293 292 292 292 292 292 292 292 292 292 292 292 291 291 291 291 291 291 291 291 291 291 291 292 292 292 293 293 294 294 294 294 294 295 295 296
291 291 292 292 292 292 291 291 291 291 291 291 290 290 290 290 290 290 290 289 289 289 289 289 289 289 289 289 289 289 289 289 289 289 289 289 290 289 289 289 289 288 288 289 289 290 291 292 292 292 292 291 291 291 291 291 291 291 291 291 291 291 290 290 290 290 290 291 291 291 291 291 292 292 292 293 293 293 293 294 294 294 294 295 295 295
291 291 291 291 291 291 291 290 290 290 290 290 290 290 290 290 290 290 290 289 289 289 289 289 289 289 289 289 289 289 289 289 289 289 289 289 289 289 289 289 289 288 288 288 289 289 290 291 291 291 291 290 290 290 290 290 290 290 290 290 290 290 289 289 289 289 289 290 290 291 291 291 292 292 292 292 293 293 293 293 293 294 294 294 295 295
290 291 291 291 290 290 290 290 290 290 290 290 290 290 290 290 290 290 290 289 289 289 289 289 289 289 289 289 289 289 289 289 289 289 289 289 289 289 289 289 289 288 287 287 288 288 289 289 289 289 289 289 289 289 289 289 290 290 290 290 289 289 288 288 288 288 288 289 290 290 291 292 292 292 292 292 292 292 292 293 293 293 294 294 294 295
291 291 291 290 290 290 290 290 290 290 290 290 290 290 290 290 290 290 290 289 289 289 289 289 289 289 289 289 289 289 289 289 289 289 289 289 289 289 289 289 289 288 287 287 287 287 288 288 288 288 288 288 288 289 289 289 289 289 289 289 288 287 287 287 287 288 288 289 290 290 291 291 291 291 292 292 292 292 292 292 293 293 293 293 294 294
291 291 290 291 290 290 290 290 290 290 290 290 290 290 290 290 290 290 290 289 289 289 289 289 289 289 289 289 289 289 289 290 289 289 289 289 289 289 289 289 289 288 288 287 287 287 287 287 287 287 288 288 288 288 289 289 289 289 288 287 287 286 286 286 287 288 289 289 290 290 290 291 291 291 291 291 291 291 292 292 292 292 293 293 293 293
291 291 291 291 290 290 290 290 290 290 290 290 290 290 290 290 290 290 289 289 289 289 289 289 289 289 289 289 289 289 289 289 289 289 289 289 289 289 289 289 289 288 288 288 288 287 288 288 288 288 287 287 287 288 288 288 288 288 287 286 286 286 286 286 287 288 289 289 290 290 290 290 291 291 291 291 291 291 291 292 292 292 292 292 293 293
291 291 291 291 291 290 290 290 290 290 290 290 290 290 290 290 290 289 289 289 289 289 289 289 289 289 289 289 289 289 289 289 289 289 289 289 289 289 289 289 289 288 288 288 288 288 288 288 288 288 288 287 287 287 288 288 287 287 286 286 286 286 286 286 287 288 289 289 290 290 290 290 290 291 291 291 291 291 291 291 291 292 292 292 292 292
291 291 291 291 291 291 290 290 290 290 290 290 290 289 289 289 289 289 289 289 289 289 289 289 289 289 289 289 289 289 289 289 289 289 289 289 289 289 289 289 289 289 289 289 289 289 289 289 289 288 288 288 287 287 287 287 287 287 286 286 286 286 286 287 288 288 288 289 289 290 290 290 290 290 291 291 291 291 291 291 291 291 291 291 291 291
291 290 290 290 290 290 290 290 290 290 289 289 289 289 289 289 289 289 289 288 288 289 289 289 289 289 289 289 289 289 290 289 290 289 289 289 289 289 289 289 289 289 289 289 289 289 289 289 289 288 288 288 287 287 287 287 287 287 287 286 286 286 287 287 288 288 288 289 289 289 290 290 290 290 290 290 291 291 291 291 291 291 291 291 291 291
290 290 290 290 290 290 290 289 289 289 289 289 289 288 289 289 289 288 288 288 288 288 288 289 289 289 289 289 290 290 290 290 290 290 289 289 289 289 289 289 289 289 289 289 289 289 289 289 289 288 288 288 287 287 287 287 287 287 287 287 287 287 287 288 288 288 288 288 289 289 289 289 290 290 290 290 290 290 290 290 290 290 290 290 291 291
290 290 290 290 290 289 289 289 289 288 288 288 288 288 289 288 288 288 288 288 288 288 288 288 289 289 289 289 290 290 290 290 290 289 289 289 289 289 289 289 289 289 289 289 289 289 289 289 289 288 288 288 287 287 287 287 287 287 287 287 287 287 287 288 288 288 288 288 289 289 289 289 289 290 290 290 290 290 290 290 290 290 290 290 290 290
289 289 290 289 289 289 289 289 288 288 288 288 288 288 288 288 288 288 288 288 288 288 288 288 288 289 289 289 289 290 290 290 289 289 289 289 289 289 289 289 289 289 289 289 289 289 289 289 288 288 288 288 288 287 287 287 287 287 287 287 287 287 287 288 288 288 288 288 289 289 289 289 289 289 290 290 290 290 290 290 290 289 290 290 290 290
289 289 289 289 289 289 289 289 288 288 288 288 288 288 288 288 288 288 288 288 288 288 288 288 288 288 289 289 289 289 289 289 289 289 289 288 289 289 289 289 289 289 289 289 289 289 289 288 288 288 288 288 288 288 287 287 287 287 287 287 287 287 287 288 288 288 288 288 289 289 289 289 289 289 289 289 289 289 289 289 289 289 289 289 289 289
289 289 288 288 288 288 288 288 288 288 288 288 288 288 288 288 288 288 288 287 287 287 287 287 288 288 289 289 289 289 289 289 289 288 288 288 288 289 288 289 289 289 289 289 289 289 289 288 288 288 288 288 287 287 287 287 287 287 287 287 287 287 287 288 288 288 288 288 289 289 289 289 289 289 289 288 288 288 288 288 288 288 288 288 289 289
289 288 288 288 288 288 288 288 288 288 288 288 288 288 288 288 288 288 287 287 287 287 287 287 288 288 288 289 289 288 288 288 288 288 288 288 288 288 288 288 288 289 289 289 289 289 288 288 288 288 287 287 287 287 287 287 287 287 287 287 287 287 287 288 288 288 288 288 288 288 288 288 288 288 288 288 287 287 287 287 287 288 288 288 288 288
288 288 288 288 288 288 288 288 288 288 288 288 288 288 288 288 288 287 287 287 286 286 287 287 288 288 288 289 289 288 288 288 288 288 288 288 288 288 288 288 288 288 289 289 289 288 288 288 288 287 287 287 287 287 287 287 287 287 287 287 287 287 287 288 288 288 288 288 288 288 288 288 288 287 287 287 287 287 287 287 287 287 287 288 288 288
288 288 288 288 288 288 288 288 288 288 288 288 288 288 288 288 288 287 287 287 287 286 287 287 287 287 288 288 288 288 288 288 288 288 288 288 288 288 288 288 288 288 288 288 288 288 288 288 287 287 287 287 287 287 286 286 286 287 287 287 287 287 287 287 288 288 288 288 288 287 287 287 287 287 287 287 286 286 287 287 287 287 287 287 287 288
288 288 288 288 288 288 288 288 288 288 288 288 288 288 288 287 287 287 287 287 287 287 287 287 287 287 287 288 288 288 288 288 288 288 288 288 288 288 288 288 288 288 288 288 288 288 287 287 287 287 287 287 287 286 286 286 286 286 287 287 287 286 286 287 287 287 287 287 287 287 287 287 287 287 286 286 286 286 286 287 287 287 287 287 287 287
288 288 288 288 288 288 288 288 288 288 288 288 288 288 287 287 287 287 287 287 287 287 287 286 286 287 287 288 288 288 288 288 288 288 288 288 288 288 288 288 288 288 288 288 288 287 287 287 287 287 287 287 286 286 286 286 286 286 286 286 286 286 286 286 286 286 286 286 286 286 286 286 286 286 286 286 286 286 286 286 286 286 287 287 287 287
289 289 289 289 288 288 288 288 289 289 288 288 288 288 287 287 287 287 288 288 287 287 287 287 287 288 288 288 288 288 288 288 288 288 288 288 288 288 288 288 288 288 287 287 287 287 287 287 287 287 287 286 286 286 286 286 286 286 285 285 285 285 285 285 285 285 285 285 285 286 286 286 286 286 285 285 285 286 286 286 286 286 286 286 286 286
290 290 289 289 289 289 289 289 289 289 289 288 288 288 288 288 288 288 288 288 288 288 288 288 288 288 288 288 288 288 289 289 289 289 289 288 288 288 288 288 288 287 287 287 287 287 287 287 286 286 286 286 286 286 286 286 285 285 285 285 285 285 285 285 285 285 285 285 285 285 285 285 285 285 285 285 285 285 285 285 285 285 285 285 285 285
291 290 290 290 290 290 290 290 290 290 289 289 289 289 289 289 289 289 288 288 288 288 288 288 288 288 288 288 289 289 289 289 289 289 289 288 288 288 288 288 288 287 287 287 287 287 287 286 286 286 286 286 286 286 286 285 285 285 285 285 285 285 285 285 285 285 285 285 284 284 284 285 285 285 285 285 285 285 285 285 285 285 285 285 285 285
291 291 290 291 291 291 290 290 290 290 290 290 289 289 289 289 289 289 289 288 288 288 288 288 288 288 289 289 289 289 289 289 290 289 289 289 288 288 288 288 288 287 287 287 287 287 286 286 286 286 286 286 286 286 285 285 285 285 285 285 285 285 285 285 285 285 285 284 284 284 284 284 284 285 285 285 285 285 285 285 284 284 284 284 285 285
291 291 291 291 291 291 290 290 290 290 290 290 289 289 289 289 289 289 289 288 288 288 288 288 289 289 289 289 290 290 290 290 290 290 289 289 289 288 288 288 288 287 287 287 287 287 286 286 286 286 286 286 286 285 285 285 285 285 285 285 285 285 285 285 284 284 284 284 284 284 284 284 284 284 284 284 284 284 284 284 284 284 284 284 284 284
291 291 291 291 291 290 290 290 290 290 290 290 289 289 289 289 289 289 288 288 288 289 289 289 289 290 290 290 290 290 290 290 290 289 289 289 288 288 288 288 287 287 287 287 287 286 286 286 286 285 285 285 285 285 285 285 285 285 285 285 285 284 284 284 284 284 284 284 284 284 284 284 284 284 284 284 284 284 284 284 283 283 284 283 283 283
290 291 291 291 291 291 291 290 290 290 290 290 290 290 290 290 289 289 289 289 289 289 289 289 290 290 290 290 290 290 290 289 289 289 289 288 288 288 288 287 287 287 287 287 286 286 286 286 285 285 285 285 285 285 285 285 285 285 285 285 285 284 284 284 284 284 284 283 283 283 283 283 283 283 283 283 283 283 283 283 283 283 283 283 283 282
290 290 290 290 290 291 291 291 291 291 291 291 291 291 291 291 290 290 290 290 290 290 290 290 290 290 290 290 289 289 289 289 288 288 288 288 288 287 287 287 287 287 286 286 286 286 286 286 285 285 285 285 285 285 285 285 285 285 285 285 285 285 284 284 284 283 283 283 283 283 283 283 283 283 283 283 283 283 283 283 283 283 282 282 282 282
289 289 289 290 290 290 290 290 291 291 291 291 291 292 292 292 291 291 291 291 291 290 290 290 290 290 289 289 288 288 288 288 288 288 288 287 287 287 287 287 286 286 286 286 286 286 286 286 285 285 285 285 285 285 284 284 284 284 284 285 285 285 284 284 284 283 283 283 283 283 283 283 282 282 282 282 282 282 282 282 282 282 282 282 281 281
288 289 289 289 289 289 289 289 290 290 290 290 290 291 291 291 291 291 291 291 290 290 290 289 289 289 289 288 288 288 287 288 287 287 287 287 287 287 287 286 286 286 286 286 285 285 285 285 285 285 285 285 285 285 284 284 284 284 284 284 284 284 284 284 284 283 283 282 282 282 282 282 282 282 282 281 281 281 281 281 282 282 282 281 281 281
288 288 288 288 289 289 289 289 289 289 289 289 289 289 290 290 290 290 290 290 290 289 289 289 288 288 288 288 287 287 287 287 287 287 287 287 287 287 286 286 286 286 286 286 286 285 285 285 285 285 285 285 285 285 285 285 285 285 285 284 284 284 284 284 283 283 283 282 282 282 282 282 282 281 281 281 281 281 281 281 281 281 281 282 282 282
288 288 288 288 288 288 288 288 288 288 288 288 288 289 289 289 289 289 289 289 289 289 288 288 288 287 287 287 287 287 287 287 287 287 287 287 287 286 286 286 286 286 286 286 286 286 285 285 285 285 285 285 285 285 285 285 285 285 285 284 284 284 284 283 283 283 283 282 282 282 282 282 281 281 281 280 280 280 280 281 281 281 282 282 282 282
288 288 288 288 288 288 288 288 288 288 288 288 288 288 288 288 288 288 288 288 288 288 288 288 288 287 287 287 287 287 287 287 287 287 287 287 287 286 286 286 286 286 286 286 286 286 286 286 286 286 286 286 285 285 285 285 285 285 285 284 284 284 283 283 283 283 282 282 282 282 281 281 281 281 280 280 280 280 280 280 281 281 282 282 282 282
288 289 289 289 289 289 289 289 289 289 289 289 289 289 289 289 289 289 288 288 288 288 288 288 288 287 287 287 287 287 287 287 287 287 287 287 287 286 286 286 286 286 286 286 286 286 286 286 286 286 286 286 286 286 285 285 285 285 284 284 284 283 283 283 283 282 282 282 281 281 281 281 281 280 280 280 280 280 280 281 281 281 281 281 281 281
289 289 289 289 289 289 289 289 289 289 289 289 289 289 289 289 289 289 289 289 289 288 288 288 288 288 288 287 287 287 287 287 287 287 287 287 287 286 286 286 286 286 286 286 286 286 286 286 286 286 286 286 286 285 285 285 285 284 284 284 284 283 283 283 282 282 282 281 281 281 281 280 280 280 280 279 279 280 280 280 280 280 280 280 280 281
289 289 289 289 290 290 290 290 290 290 290 290 290 289 289 289 289 289 289 289 289 289 289 289 288 288 288 288 288 287 287 287 287 286 286 286 286 286 286 286 286 286 286 286 286 286 286 286 286 286 286 286 285 285 285 285 284 284 284 284 283 283 282 282 282 281 281 281 281 281 280 280 280 280 279 279 279 279 279 279 279 279 279 280 280 280
289 288 289 289 289 289 290 290 290 290 290 290 290 289 289 289 289 289 290 289 289 289 289 289 288 288 288 288 287 287 287 287 287 286 286 287 287 286 286 286 286 286 286 286 286 286 286 285 285 285 285 285 285 285 285 284 284 284 283 283 283 282 282 282 281 281 281 281 281 280 280 280 280 279 279 279 279 279 279 279 279 279 279 279 279 279
289 289 289 289 289 289 289 289 290 290 290 290 290 290 289 289 290 290 289 289 289 289 289 288 288 288 288 287 287 287 287 287 287 287 287 287 287 287 286 286 286 286 286 286 285 285 285 285 285 285 285 285 285 285 284 284 284 283 283 283 282 282 282 281 281 281 281 280 280 280 280 280 279 279 279 279 279 279 279 279 279 279 279 279 279 279
290 289 289 289 289 289 289 290 290 290 290 290 290 290 290 289 289 289 289 289 288 288 288 288 288 288 287 287 287 287 287 287 287 287 287 287 286 286 286 286 285 285 285 285 285 285 285 285 285 285 284 284 284 284 284 283 283 283 283 282 282 282 281 281 281 281 280 280 280 280 279 279 279 279 279 279 279 279 279 279 279 279 279 279 279 279
290 290 290 290 290 290 290 290 290 290 290 290 290 290 290 289 289 289 288 288 288 288 288 288 288 288 287 287 287 287 287 287 287 286 286 286 286 285 285 285 285 285 285 285 285 284 284 284 284 284 284 283 283 283 283 283 283 283 282 282 282 281 281 281 281 280 280 280 280 279 279 279 279 279 279 279 279 279 279 279 279 279 279 279 279 279
291 290 290 290 290 290 290 290 290 290 290 290 290 290 289 289 289 289 289 289 289 289 288 288 288 288 287 287 286 286 286 286 286 286 286 285 285 285 285 285 285 285 285 284 284 284 284 284 283 283 283 283 283 283 283 282 282 282 282 281 281 281 281 280 280 280 280 280 279 279 279 279 279 279 278 278 278 279 279 279 279 279 279 279 279 279
291 291 291 291 290 290 290 290 290 290 290 290 290 289 289 289 289 289 289 289 289 288 288 288 288 287 287 287 286 286 286 286 286 286 286 286 285 285 285 285 285 284 284 284 283 283 283 283 283 283 283 283 282 282 282 282 282 281 281 281 281 280 280 280 280 280 280 279 279 279 279 278 278 278 278 278 278 279 279 279 279 279 279 279 279 279
291 291 291 290 290 290 290 290 290 290 290 290 289 289 289 289 289 289 289 288 288 288 288 287 287 287 287 287 287 286 286 286 286 286 286 285 285 285 284 284 284 284 284 284 283 283 283 282 282 282 282 282 282 282 282 281 281 281 281 281 280 280 280 280 280 279 279 279 279 278 278 278 278 278 278 278 279 279 279 279 279 279 279 279 279 279
291 290 290 290 290 290 289 289 289 289 289 289 289 289 289 289 289 289 288 288 288 287 287 286 286 287 286 286 286 286 286 286 285 285 285 285 284 284 284 283 283 283 283 283 283 283 282 282 282 282 282 282 282 281 281 281 281 280 280 280 280 280 279 279 279 279 279 278 278 278 278 278 278 278 279 279 279 279 279 279 279 279 279 279 279 279
290 290 290 290 289 289 289 289 289 289 289 289 289 289 289 289 289 288 288 288 287 287 287 287 287 287 286 286 286 285 285 285 284 284 284 284 283 283 283 283 283 283 283 283 283 282 282 282 282 282 282 281 281 281 281 280 280 280 280 280 279 279 279 279 279 278 278 278 278 278 278 278 279 279 279 279 279 279 279 279 279 279 279 279 279 279
290 290 289 289 289 289 289 289 289 289 289 289 289 289 288 288 288 288 287 287 287 287 287 287 287 286 286 285 285 284 284 283 283 283 283 283 283 283 283 283 282 282 282 282 282 282 282 282 282 282 281 281 280 280 280 280 280 280 279 279 279 279 279 278 278 278 278 278 278 278 279 279 279 279 279 279 279 279 279 279 279 279 279 279 279 279
290 289 289 290 289 289 289 289 289 289 288 288 288 287 288 288 288 287 287 286 287 287 287 286 286 285 285 284 284 283 283 283 283 283 283 283 283 283 283 282 282 282 282 282 282 282 282 282 282 282 281 281 280 280 280 280 280 279 279 279 279 278 278 278 278 278 278 278 279 279 279 279 279 278 278 278 278 278 278 279 279 279 279 279 279 279
290 289 289 289 289 289 289 288 288 288 287 287 286 286 287 287 287 287 286 286 286 286 286 285 285 284 284 284 283 283 283 283 283 283 283 283 283 283 283 283 282 282 282 282 282 282 282 281 281 281 281 280 280 280 279 279 279 279 279 279 278 278 278 279 279 279 279 279 279 279 279 278 278 278 278 278 278 279 279 279 279 279 279 278 278 278
289 289 289 288 288 288 288 288 287 287 287 286 286 286 286 286 286 286 286 286 285 285 285 284 284 284 284 284 283 283 283 283 283 283 283 283 283 283 283 283 283 282 282 282 282 282 281 281 281 281 280 280 280 280 280 279 279 279 279 279 279 279 279 279 279 279 279 279 278 278 278 278 278 278 278 278 279 279 279 279 278 278 278 278 278 278
288 287 287 287 287 287 287 287 287 287 287 286 286 286 286 286 286 285 285 285 285 285 284 284 284 284 284 284 284 284 283 283 283 283 283 283 283 283 283 283 283 283 282 282 282 282 281 281 281 281 281 280 280 280 280 280 280 279 279 279 279 279 279 279 279 278 278 278 278 278 278 278 278 278 279 279 279 278 278 278 278 278 278 278 278 278
Wind_Speed
10 11 11 12 13 13 12 12 11 11 11 11 11 12 12 13 13 14 14 15 15 15 14 13 12 10 9 8 7 7 6 6 5 4 4 3 4 5 7 8 9 10 9 8 7 6 6 6 7 7 7 8 9 9 10 11 12 12 12 13 13 13 13 13 13 13 13 13 13 13 14 14 14 14 14 14 14 15 15 15 15 15 15 15 16 16
10 10 11 12 12 12 11 12 12 12 12 13 13 14 14 14 13 12 13 13 13 13 12 11 10 9 8 8 7 7 6 5 5 5 5 5 5 6 8 9 10 10 9 8 6 5 5 6 6 7 8 8 9 10 11 12 12 13 13 13 13 13 13 13 13 13 13 13 13 13 13 14 14 14 14 14 14 14 15 15 15 15 15 16 16 16
11 11 12 12 12 12 11 12 13 13 13 14 14 15 15 14 12 11 11 11 12 11 11 10 9 9 8 8 7 7 6 6 6 6 6 6 7 8 9 10 10 10 9 8 7 6 5 6 7 7 8 9 10 11 12 12 13 13 12 12 12 12 13 13 13 13 13 13 13 13 13 13 13 13 14 14 14 15 15 15 15 16 16 16 16 16
11 12 12 12 12 12 12 13 14 14 14 14 15 14 14 13 11 11 11 11 11 10 10 9 9 8 8 8 7 7 6 6 6 7 7 7 8 9 10 10 10 10 9 8 7 6 6 7 7 8 9 10 11 12 13 13 13 12 12 12 12 12 13 13 13 13 13 13 13 13 13 13 13 14 14 14 15 15 15 16 16 16 16 16 17 17
11 12 12 12 12 12 13 13 14 14 14 14 14 13 13 12 11 11 10 10 10 9 9 8 8 8 8 8 7 7 6 6 7 7 8 8 9 10 10 10 10 10 9 8 7 7 7 8 9 10 11 12 13 13 13 13 12 12 11 12 12 13 13 13 13 13 12 12 12 13 13 14 14 14 14 15 15 15 16 16 16 16 17 17 17 17
10 11 11 12 12 12 13 13 13 13 13 13 13 13 13 13 12 11 11 10 9 8 8 8 8 8 8 8 8 7 7 7 7 8 9 9 10 10 11 10 10 9 8 8 8 8 8 9 10 11 12 13 13 13 13 12 12 11 11 12 13 13 14 13 13 12 12 12 13 13 14 14 14 15 15 15 16 16 16 16 17 17 17 17 17 18
10 10 11 12 12 12 12 13 13 13 13 13 14 14 14 14 13 12 10 9 8 8 7 7 8 8 8 8 8 7 7 8 8 9 10 10 11 11 11 10 9 9 8 8 8 8 9 10 11 12 13 13 13 13 13 12 12 11 12 13 13 14 13 13 12 12 12 12 13 14 14 15 15 15 16 16 16 16 16 17 17 17 17 18 18 18
10 11 11 12 12 12 13 13 13 13 14 14 14 15 15 14 13 12 10 9 8 7 7 7 7 7 7 7 8 8 8 8 9 9 10 10 11 11 10 10 9 8 8 8 8 9 10 11 12 13 13 13 13 13 12 12 12 12 13 13 13 13 12 12 12 12 12 13 14 14 15 15 16 16 16 16 16 17 17 17 17 17 18 18 18 18
13 13 13 13 13 13 13 14 14 14 14 14 14 14 14 14 13 11 10 8 7 7 7 7 7 7 7 7 8 8 9 9 9 9 10 10 11 10 10 9 8 8 8 8 9 10 11 12 12 12 12 12 12 12 12 12 12 13 13 13 13 12 12 11 12 12 13 13 14 15 15 16 16 16 16 16 17 17 17 17 17 18 18 18 18 19
14 15 14 14 15 15 15 15 15 15 14 14 14 14 13 13 12 11 10 8 7 6 7 7 8 8 8 8 8 8 9 9 9 9 10 10 10 10 10 9 8 8 9 9 10 11 12 12 12 12 12 11 11 11 11 12 12 12 12 12 12 12 11 11 12 13 13 14 15 15 15 16 16 16 16 17 17 17 17 17 17 18 18 18 18 19
15 15 14 14 15 15 16 15 15 14 13 13 14 14 13 11 10 10 9 8 7 7 7 8 8 9 9 9 9 9 9 9 9 9 9 9 9 9 9 9 9 9 10 11 11 12 12 12 12 11 11 10 10 10 10 11 11 11 11 11 11 11 11 12 13 13 14 14 15 15 16 16 16 16 17 17 17 17 17 17 18 18 18 18 18 19
13 12 11 11 11 11 12 13 13 13 13 12 11 11 11 9 8 8 9 10 10 9 9 9 9 10 10 10 9 9 9 9 9 8 8 9 9 9 9 9 10 11 12 12 12 12 12 12 11 11 10 9 9 9 9 10 10 10 11 11 11 11 12 12 13 14 14 15 15 15 16 16 16 16 17 17 17 17 17 17 18 18 18 18 19 19
14 11 10 10 11 10 10 10 11 11 12 11 10 8 8 7 8 9 10 11 12 11 10 10 10 11 10 10 10 10 9 9 8 8 8 8 9 9 10 11 12 13 14 14 13 13 12 12 11 10 9 8 8 9 9 9 10 10 10 11 11 12 13 13 14 14 14 15 15 15 16 16 16 16 16 17 17 17 17 17 17 18 18 19 19 19
14 13 12 12 13 13 12 11 11 11 12 12 11 9 8 8 8 9 11 12 12 11 10 11 12 12 11 10 10 9 8 7 8 8 8 9 10 11 12 14 15 15 15 15 14 13 12 11 10 9 9 8 8 9 9 10 10 10 11 11 12 13 13 14 14 14 15 15 15 15 15 16 16 16 16 16 16 17 17 17 18 18 18 19 19 20
15 13 13 13 14 14 14 14 14 14 14 13 11 10 10 10 9 10 11 12 11 11 11 11 12 12 11 10 8 7 6 6 7 8 9 10 11 12 14 15 16 16 16 15 14 13 12 11 10 9 9 9 9 9 10 10 11 11 11 12 13 13 14 14 14 14 15 15 15 15 15 15 15 15 16 16 16 17 17 18 18 19 19 20 20 21
15 14 14 14 15 15 15 15 14 14 14 13 12 11 10 10 10 10 10 11 11 10 9 10 10 9 8 7 5 4 4 5 7 9 11 13 14 14 14 15 15 16 16 15 15 14 12 11 10 10 10 10 10 11 11 11 11 12 12 13 13 14 14 14 14 14 14 14 14 14 14 15 15 15 16 17 17 18 18 19 19 20 20 21 21 22
16 16 16 16 15 15 16 15 15 14 13 13 12 12 11 11 10 10 10 10 9 8 6 5 4 3 3 3 3 3 3 5 7 10 13 15 15 15 14 14 15 16 16 15 15 14 13 12 11 11 11 11 12 12 12 12 12 12 13 13 14 14 14 14 14 14 14 14 14 14 14 15 15 16 17 18 19 19 20 20 21 21 21 21 22 22
17 18 17 17 16 16 15 15 14 14 13 13 12 12 11 10 10 10 10 10 9 8 7 5 4 3 3 3 3 4 4 6 9 12 15 16 16 15 14 13 14 15 16 15 15 14 13 12 12 12 13 13 13 12 12 12 12 13 13 14 14 14 14 13 13 13 13 13 13 14 14 15 16 18 19 20 20 21 21 21 21 21 21 22 22 22
19 19 19 18 17 16 15 15 15 15 14 13 13 12 12 11 10 10 10 10 11 11 10 9 8 7 6 6 7 7 7 8 11 13 15 16 16 15 13 13 13 15 15 15 15 14 13 13 13 13 13 13 13 13 13 13 13 13 13 14 14 13 13 12 12 12 12 13 13 14 16 17 18 19 20 21 21 21 21 21 21 21 21 21 21 21
20 20 20 19 18 16 16 17 16 15 14 13 12 12 12 11 11 10 11 11 11 12 12 13 13 12 10 11 11 10 9 9 11 12 13 15 15 14 12 12 13 14 16 16 15 14 14 14 14 14 14 14 14 14 13 13 13 13 13 13 13 12 11 11 11 12 12 13 15 16 17 18 19 20 21 21 21 21 21 20 20 20 20 21 21 21
20 21 21 20 18 16 16 17 16 15 13 11 11 12 12 11 11 11 11 11 12 12 13 15 15 15 13 13 12 10 9 10 11 12 12 14 14 14 12 12 13 14 16 16 15 15 15 15 15 15 15 15 15 15 14 13 13 13 13 12 11 11 10 10 11 12 14 15 17 18 19 20 20 21 21 21 21 20 20 20 20 20 20 21 21 22
21 21 20 19 18 17 17 16 14 12 11 10 11 12 12 12 12 12 12 12 12 14 14 15 15 14 14 14 13 12 12 12 13 13 12 13 14 14 12 11 12 14 15 16 16 15 15 15 16 16 16 16 16 15 15 14 13 13 12 11 10 10 10 11 12 14 16 17 18 19 19 20 20 20 21 21 20 20 20 20 20 21 21 22 22 22
20 20 18 17 17 16 15 13 12 11 10 11 11 12 11 11 12 12 12 12 12 13 14 14 14 14 14 15 15 15 15 14 14 14 12 11 12 13 11 11 12 14 15 16 16 16 15 16 16 17 17 17 17 16 15 14 12 11 10 10 10 10 11 12 14 15 17 18 19 19 20 20 20 20 20 20 20 20 20 21 21 21 22 22 23 23
19 18 17 17 16 15 13 12 12 11 11 11 11 11 11 10 11 11 11 11 11 12 13 13 14 15 16 16 16 16 15 14 13 13 13 11 12 13 12 12 13 14 16 16 15 15 15 16 17 18 18 18 17 15 14 12 11 10 10 10 11 12 13 14 15 17 18 19 20 20 20 20 20 20 21 21 21 21 21 21 22 22 23 23 23 23
18 17 17 16 15 14 13 12 11 11 11 11 11 11 10 10 10 10 11 12 12 13 14 14 14 14 14 13 14 14 14 12 12 13 14 11 12 13 13 12 12 14 15 15 15 15 16 17 18 18 18 17 16 13 11 10 9 9 10 11 12 13 14 15 17 18 19 20 20 20 20 20 20 21 21 21 22 22 22 22 23 23 23 23 23 23
17 16 15 14 13 13 12 11 11 11 11 11 11 11 10 10 11 12 14 15 15 15 13 12 12 12 12 11 12 12 11 11 10 12 13 11 11 12 13 12 12 13 14 15 15 16 17 17 18 18 17 16 13 11 9 8 8 10 12 13 15 15 16 17 18 19 19 20 20 20 20 21 21 21 22 22 22 23 23 23 23 23 23 23 23 23
17 15 14 14 13 12 11 11 11 11 11 12 11 11 11 11 13 15 15 15 15 14 13 11 10 10 10 9 9 9 8 8 8 9 10 11 11 12 13 12 12 13 14 15 16 16 16 17 17 16 15 13 11 8 7 7 9 11 14 16 17 17 18 19 19 20 20 20 20 20 21 22 22 22 23 23 23 23 23 23 23 23 23 23 22 22
17 16 15 15 14 13 12 12 12 12 12 12 12 12 12 14 15 15 14 14 15 14 14 11 9 7 7 7 8 8 8 8 8 8 9 10 10 11 12 12 12 12 13 14 15 16 15 15 15 14 13 11 9 7 7 8 10 13 16 18 19 19 20 20 21 20 20 20 20 20 21 23 23 24 24 24 24 23 23 23 22 22 22 21 20 20
20 19 18 17 16 15 14 14 14 14 14 14 14 14 15 16 17 16 14 13 13 13 13 11 9 8 8 9 10 11 11 11 10 10 10 10 10 11 11 10 10 11 11 13 14 15 14 12 12 11 10 9 8 7 8 10 12 14 16 18 19 20 21 22 22 21 20 20 20 21 23 24 25 25 25 25 24 23 22 22 22 21 20 20 19 19
24 23 21 20 19 18 17 17 17 17 17 16 16 16 16 17 17 17 15 13 11 11 11 10 10 10 10 10 10 9 10 11 10 9 9 9 9 9 9 9 10 10 10 11 10 10 11 11 10 8 8 8 8 9 11 13 14 16 16 16 17 19 21 22 22 21 20 20 21 22 24 26 26 26 26 25 24 23 22 21 21 20 19 19 19 19
22 22 22 22 21 21 20 20 20 20 20 20 19 19 19 19 19 19 17 16 14 13 12 12 12 12 11 8 5 3 4 7 7 6 7 7 7 8 9 10 11 11 11 9 6 5 7 9 9 8 8 10 12 14 15 16 17 17 17 16 16 18 20 21 22 22 21 22 23 24 26 27 27 26 26 25 24 23 21 20 20 19 19 19 19 19
18 18 19 19 19 19 19 19 20 20 20 21 21 21 21 21 21 20 20 19 19 18 17 16 15 14 13 11 8 6 6 6 6 6 7 7 9 11 11 11 12 12 12 11 9 6 4 7 11 13 12 13 15 16 17 17 17 17 16 16 16 17 19 20 21 22 23 24 25 27 28 28 27 27 26 25 24 22 21 20 18 18 18 18 19 20
13 13 14 14 14 14 15 15 16 17 17 18 18 18 19 19 19 19 19 19 19 19 19 18 16 15 14 14 13 12 12 11 10 10 10 11 11 12 12 12 12 12 13 13 13 12 9 10 13 15 15 15 15 16 16 15 15 14 14 14 16 17 18 19 21 22 24 26 28 28 29 29 28 27 26 25 24 22 21 19 17 17 17 18 19 20
11 11 10 10 10 11 11 12 12 13 13 13 14 14 14 15 15 15 16 16 17 17 18 18 17 16 14 13 13 13 13 13 12 12 12 13 12 12 13 12 12 12 12 12 12 12 13 13 14 14 15 15 15 14 13 13 13 13 13 14 16 17 19 20 22 23 25 27 28 29 29 29 29 28 27 26 24 22 20 18 18 17 18 18 19 20
10 10 10 10 10 10 10 11 11 11 11 11 11 12 12 12 12 13 13 14 15 16 17 17 18 17 16 14 13 13 13 13 13 12 13 13 13 13 13 12 12 11 11 11 10 10 10 13 14 14 14 15 15 14 13 12 12 13 14 15 16 18 19 21 23 24 26 27 28 29 29 29 29 28 27 26 23 21 19 19 19 19 19 19 19 19
11 11 11 11 11 11 11 11 11 11 11 12 11 11 11 11 11 12 13 14 15 16 16 17 17 17 17 17 16 15 16 15 14 13 13 14 14 14 13 12 12 11 11 11 11 11 11 13 15 16 15 14 13 13 13 13 13 14 15 16 17 19 21 22 23 24 25 26 27 28 28 29 28 28 26 24 22 20 20 20 20 20 20 19 19 19
13 13 13 13 13 13 13 13 13 13 13 12 11 10 10 11 12 13 13 14 15 15 15 15 16 16 16 16 17 17 16 15 13 13 13 15 16 16 15 14 14 14 13 13 13 13 13 14 15 15 15 13 12 12 13 13 14 15 16 17 19 20 22 22 23 23 24 25 26 27 28 28 27 26 25 23 22 22 22 22 22 21 20 19 19 19
14 14 14 15 14 14 14 14 14 14 13 12 11 10 10 11 12 12 13 13 13 13 13 13 13 13 13 13 13 14 13 13 13 13 14 15 16 17 17 17 17 16 15 15 15 15 14 13 12 11 12 13 13 13 14 14 15 16 18 19 20 21 21 21 21 22 23 25 27 27 27 26 25 24 24 23 23 24 24 24 22 21 20 20 21 21
15 15 15 15 15 16 15 16 15 14 13 11 10 10 10 11 11 11 11 11 11 11 12 12 12 12 11 11 12 12 13 14 14 15 16 16 17 18 19 18 18 17 17 17 17 17 16 14 13 11 11 12 14 15 15 15 16 17 19 20 21 21 20 20 21 23 24 25 26 26 25 24 23 23 23 23 23 23 22 22 22 22 22 23 23 23
15 15 16 16 17 17 17 16 15 13 11 10 10 10 10 10 10 10 10 10 10 11 12 13 13 13 13 13 13 14 14 15 15 15 16 16 17 17 18 18 18 18 17 17 18 17 17 16 15 15 15 14 15 16 16 16 16 17 18 18 19 20 20 21 22 23 24 23 23 22 22 22 22 22 22 22 21 21 22 23 23 23 23 23 22 22
16 16 16 17 17 17 16 14 12 11 10 10 10 11 12 12 12 11 11 11 12 13 14 14 15 15 14 14 14 14 14 14 14 14 14 15 15 15 15 15 16 16 16 17 17 17 17 16 16 16 16 16 16 17 17 17 17 17 17 17 19 21 23 23 23 22 21 21 20 20 21 21 21 21 21 21 21 22 22 23 24 24 23 22 21 20
16 16 17 16 16 15 14 12 11 11 11 12 13 13 14 14 14 14 14 14 14 15 15 15 15 15 15 15 14 14 13 13 13 13 13 13 13 12 12 13 13 13 14 15 16 16 16 16 16 16 16 16 16 16 17 18 18 18 17 18 20 22 23 23 21 19 19 19 20 21 21 21 21 22 22 22 23 23 23 23 22 22 21 20 20 20
16 16 15 14 13 12 11 11 11 12 12 13 14 14 14 14 14 14 15 15 15 14 13 13 12 13 14 14 15 14 14 14 13 13 12 12 11 11 11 12 12 12 13 14 15 15 16 15 15 16 16 16 16 16 17 18 19 19 19 19 19 20 19 21 21 20 20 20 20 20 20 21 21 22 22 22 22 22 22 22 21 20 20 20 20 21
14 13 12 11 10 10 10 10 11 12 12 13 13 14 13 13 13 13 13 13 13 12 11 10 10 11 13 13 13 13 12 12 12 11 11 11 11 11 11 12 12 12 12 13 14 14 14 14 15 15 15 15 15 16 17 18 19 20 20 20 20 19 19 21 22 22 21 21 20 20 20 20 21 22 22 22 22 21 21 21 21 21 22 21 22 22
11 11 10 10 10 10 11 11 12 12 13 13 13 13 13 13 12 12 12 12 11 10 10 10 10 11 11 11 11 11 11 11 11 11 11 12 12 12 12 11 11 11 12 13 13 14 14 14 15 15 15 15 16 16 17 18 19 20 21 21 20 20 21 22 22 21 20 20 20 20 20 20 21 21 22 22 22 22 21 22 22 23 23 23 23 23
11 11 11 11 12 12 13 14 14 14 14 14 14 14 13 12 12 11 11 10 10 11 11 12 11 10 9 9 9 10 11 12 13 14 13 13 12 11 11 10 10 11 11 12 13 13 14 15 15 16 16 16 16 17 18 19 19 20 22 22 21 21 21 21 20 19 19 19 20 20 20 20 20 21 21 22 23 23 23 23 23 23 23 23 23 24
13 13 14 14 14 15 15 15 15 15 14 14 14 13 12 12 11 10 10 10 10 11 11 11 11 10 10 10 10 11 11 13 15 15 14 13 11 10 10 10 10 11 11 12 13 14 15 16 16 17 17 16 16 17 19 20 20 21 22 22 21 20 20 19 19 19 19 19 19 20 20 20 20 21 22 23 24 24 24 23 23 22 22 23 23 24
15 16 16 16 16 16 16 15 15 14 14 14 13 12 11 11 10 10 10 10 10 10 10 10 9 10 11 11 12 12 13 14 14 14 14 13 12 11 11 10 11 11 12 12 13 15 16 16 17 17 17 17 17 18 20 21 21 21 21 21 20 20 19 20 20 20 19 19 19 20 20 20 21 22 23 24 24 24 24 23 23 22 22 23 23 24
17 17 17 17 17 17 16 15 15 14 14 13 12 12 11 11 10 10 10 10 10 10 10 10 10 10 11 12 13 13 13 13 13 13 13 13 13 12 11 11 11 12 12 14 14 15 16 16 17 17 17 17 19 20 21 22 22 22 21 20 19 19 19 20 20 20 19 19 20 21 21 22 22 22 22 23 23 24 25 24 24 24 23 23 23 24
17 17 17 17 17 16 16 15 15 14 13 12 12 11 11 11 10 10 10 10 10 10 11 11 12 12 12 12 13 13 13 13 13 13 14 14 13 13 12 12 12 12 12 13 13 14 14 15 15 16 15 15 17 19 20 22 22 22 21 20 19 19 19 19 20 20 20 20 21 22 23 23 22 21 20 20 22 24 25 25 25 25 24 23 23 24
16 16 16 16 16 16 15 15 14 14 13 12 11 12 12 11 11 11 11 11 11 12 12 13 13 13 12 12 13 13 13 13 13 14 15 15 14 14 14 13 13 12 11 10 9 10 10 11 12 13 14 14 14 15 17 19 20 20 19 19 19 18 18 19 21 21 22 22 22 22 21 21 20 19 18 19 20 22 23 25 25 25 24 24 24 24
Wind_Direction
192 195 198 201 204 208 215 223 229 234 243 254 262 271 279 285 291 295 300 303 305 306 307 308 308 308 307 305 304 302 297 287 270 253 247 260 281 298 308 315 320 325 329 332 335 335 332 333 333 333 332 332 330 327 326 326 325 325 325 325 324 324 324 324 323 322 322 321 320 319 318 318 318 319 319 320 319 318 317 316 316 315 315 315 314 314
198 201 203 206 208 212 221 231 237 242 249 257 264 271 277 281 285 290 297 301 303 305 306 305 305 305 304 303 302 300 295 283 264 248 244 257 276 292 304 312 319 323 327 328 329 327 325 327 328 328 327 326 325 324 323 323 323 324 325 325 324 324 323 323 322 321 321 321 320 319 319 320 320 321 320 320 319 317 316 316 315 315 315 314 314 313
202 206 210 213 216 219 228 239 246 251 257 263 269 274 278 281 284 290 297 302 304 304 303 302 301 301 300 299 299 297 291 277 259 247 246 258 274 289 300 309 315 319 322 322 321 319 316 317 319 319 320 320 320 320 320 319 320 321 323 323 322 322 321 320 320 320 320 321 321 321 322 322 322 321 320 319 318 317 316 316 315 314 314 313 313 312
209 212 217 223 227 229 235 244 252 258 263 267 272 275 278 281 286 293 300 304 305 303 300 298 297 297 297 297 297 294 286 271 256 249 251 261 275 287 297 305 310 314 316 316 314 311 307 308 309 311 314 315 315 315 315 316 317 319 319 319 319 318 317 316 317 317 319 321 322 323 323 323 322 321 320 318 317 316 316 315 314 314 313 312 312 311
216 218 223 229 234 238 243 248 254 260 265 269 273 276 278 282 287 294 300 302 302 300 297 295 294 294 294 294 293 289 280 267 256 253 257 266 276 286 295 301 306 309 310 310 308 306 304 304 305 307 309 310 311 312 313 314 314 315 315 315 314 313 314 315 316 318 320 322 323 323 323 322 321 320 318 317 316 316 315 314 314 313 312 312 311 311
221 222 227 232 237 242 248 252 257 262 267 271 275 278 281 284 288 294 300 301 298 295 292 291 290 290 290 290 287 283 274 264 258 257 261 269 277 285 292 297 301 303 304 305 304 304 304 304 305 306 307 307 308 309 310 310 309 309 309 308 309 310 312 314 317 319 322 323 323 323 322 321 320 318 317 316 315 315 314 313 313 312 312 311 311 310
225 227 230 234 238 243 249 254 259 264 268 273 277 280 283 286 290 295 299 299 295 290 286 285 284 284 283 282 280 275 269 263 260 261 265 271 277 283 288 292 295 297 299 300 302 304 305 306 306 306 306 305 306 306 305 304 303 302 302 303 305 308 311 314 317 320 322 322 322 321 321 320 318 317 316 315 314 313 313 312 312 312 311 311 310 310
229 231 233 235 239 244 249 254 260 265 269 273 278 282 285 288 291 294 296 295 291 284 279 275 273 272 272 272 271 268 266 264 264 265 269 273 277 281 285 287 290 292 295 298 301 304 306 306 306 305 303 302 301 301 300 298 296 297 298 301 305 307 310 313 316 319 321 321 321 320 319 318 317 316 315 314 312 312 312 311 311 311 310 310 310 309
236 236 239 240 243 246 251 255 260 265 270 274 277 281 285 289 291 292 292 291 287 279 273 268 263 261 260 261 262 263 265 265 267 271 274 276 279 281 283 285 287 290 294 298 302 305 307 307 306 304 301 298 296 294 293 291 291 293 297 301 304 307 310 313 316 318 319 319 319 319 318 317 316 315 314 313 313 312 311 311 311 310 310 309 309 309
243 242 244 248 251 253 254 257 260 264 268 271 273 276 280 285 289 291 291 287 282 278 274 270 267 264 262 261 261 262 265 268 271 274 277 279 280 282 283 285 288 293 297 301 304 307 310 310 308 304 299 295 291 288 287 287 288 292 297 301 305 309 312 315 317 317 317 317 317 317 317 316 315 315 314 313 313 312 311 311 311 310 309 309 308 308
245 247 248 251 255 258 258 258 259 260 262 265 267 270 273 276 281 286 289 286 280 279 280 277 274 273 272 272 270 268 269 272 274 276 276 276 277 279 281 284 289 295 299 303 306 310 313 313 311 305 299 293 288 286 285 286 289 294 299 304 309 313 316 317 317 317 316 316 316 316 316 316 315 315 314 313 313 312 312 311 311 310 309 309 308 307
242 246 248 249 251 254 255 255 254 253 253 254 257 261 264 266 271 278 283 286 286 286 288 284 278 275 276 279 280 279 278 278 277 275 274 273 274 277 281 286 290 296 300 304 307 312 317 317 314 308 301 294 288 286 286 288 293 298 304 310 316 319 319 319 318 317 316 316 316 316 316 316 316 315 315 314 313 313 312 311 310 310 309 308 308 307
238 240 242 243 243 244 245 244 242 241 240 238 238 241 249 258 269 277 280 283 286 289 292 289 284 279 277 278 281 284 283 281 279 277 275 276 280 285 290 293 298 301 304 306 310 315 320 321 318 312 305 297 292 290 291 293 298 305 312 318 321 321 320 320 319 318 317 317 317 317 316 316 316 316 316 315 314 313 312 311 310 309 308 308 307 307
234 236 239 240 241 240 239 236 233 231 230 232 234 238 246 257 267 273 277 280 284 287 289 288 287 286 284 282 281 280 280 280 280 280 280 283 289 295 299 302 304 306 308 310 313 318 324 325 322 316 309 302 298 297 297 300 306 313 319 321 322 321 321 320 319 319 318 318 318 317 317 317 317 317 316 315 314 313 312 311 310 309 308 307 307 306
230 232 234 238 240 240 238 235 234 234 235 237 239 243 249 255 261 266 270 274 280 285 286 285 287 287 284 280 277 274 273 275 279 283 287 291 295 300 304 306 307 308 310 312 315 321 326 327 325 320 313 307 304 304 306 310 315 319 321 321 322 321 321 321 320 319 318 318 318 318 318 318 318 318 317 316 315 314 313 311 310 309 308 306 305 305
228 227 229 234 239 240 238 235 234 235 237 238 238 240 244 249 255 260 264 269 276 282 285 291 296 294 280 265 256 255 264 274 282 288 294 297 299 303 307 308 308 309 310 312 316 321 326 327 325 321 317 313 310 311 313 316 318 320 321 322 322 322 321 320 319 319 319 319 319 319 319 319 318 318 317 316 314 313 312 310 309 307 306 305 304 304
226 226 229 233 238 240 239 237 235 235 235 235 236 239 244 249 254 257 259 262 266 270 273 281 291 296 280 243 227 234 261 280 290 295 299 300 302 305 309 309 307 308 310 312 315 320 325 325 324 322 320 317 316 317 317 318 319 320 321 322 321 320 319 319 319 319 319 320 320 320 320 319 318 317 316 315 313 312 310 308 307 306 305 304 304 303
227 227 229 232 236 239 239 236 233 232 232 232 235 241 247 250 252 253 253 254 252 249 250 251 246 243 259 263 254 256 279 290 296 299 300 301 303 306 309 308 306 305 307 309 313 318 321 322 322 322 321 321 320 320 319 319 319 320 321 320 319 318 317 318 318 319 320 320 320 320 320 319 318 316 315 313 312 311 309 308 307 306 305 304 304 303
227 228 228 231 234 237 238 235 232 230 230 231 235 240 243 245 247 247 249 249 248 246 245 244 244 249 255 264 270 278 288 294 297 298 298 299 301 304 305 303 301 301 302 305 310 315 318 319 320 321 321 322 321 320 319 319 319 319 318 317 316 316 316 317 319 320 321 321 321 320 319 318 317 315 314 313 312 311 310 309 308 307 306 305 304 304
229 230 229 230 232 235 236 236 235 235 235 238 240 240 238 241 242 243 245 247 248 249 250 249 248 250 259 266 274 282 287 294 296 295 295 295 297 298 299 296 295 295 297 301 307 313 316 317 318 319 321 321 320 319 318 318 316 315 314 314 314 314 315 317 319 320 320 321 320 319 318 317 317 316 315 314 313 312 311 310 309 308 307 306 305 304
230 233 234 233 232 232 235 238 242 244 244 243 239 236 235 236 238 240 242 244 246 247 248 248 249 253 261 268 275 282 286 289 289 290 292 292 292 292 292 292 292 293 295 299 305 311 314 315 316 317 319 319 319 318 316 315 313 312 312 312 313 314 316 318 320 320 321 320 320 319 318 317 316 316 315 314 313 312 311 310 309 308 307 306 305 304
233 236 240 240 238 237 241 247 250 250 245 238 232 230 230 232 235 238 242 243 244 245 245 246 253 262 270 274 277 280 282 282 281 281 286 287 288 288 290 290 291 292 293 297 303 308 311 312 313 315 316 317 317 316 315 313 312 311 310 310 311 314 317 319 320 321 322 322 322 320 319 318 317 316 315 314 313 312 311 310 309 308 307 306 305 304
239 242 245 245 245 247 250 253 253 250 242 236 234 234 237 239 242 245 247 247 248 249 252 259 267 273 274 275 276 278 278 279 277 275 273 275 281 286 289 290 290 290 290 295 301 306 307 308 310 312 314 315 315 315 314 312 310 308 307 308 311 315 318 319 320 322 323 323 323 322 321 319 318 317 317 315 313 312 310 309 308 308 307 306 305 304
240 243 244 246 247 249 250 250 248 245 241 239 240 244 249 252 254 256 257 257 258 258 261 265 266 266 266 269 271 273 274 276 273 266 259 263 273 281 286 288 288 288 290 295 300 304 305 305 307 309 311 313 313 313 312 310 307 305 306 309 314 317 317 318 319 320 321 322 323 323 322 321 319 318 317 315 313 311 310 309 308 308 307 306 305 304
237 239 241 244 245 246 245 243 241 240 239 240 242 245 249 252 254 254 255 255 255 254 255 256 257 258 261 263 265 268 273 273 266 256 249 257 270 278 283 287 288 290 292 296 300 302 302 302 303 305 308 311 312 312 310 308 305 306 309 313 316 317 317 316 316 317 318 320 321 322 322 321 319 317 316 314 312 311 310 309 308 308 307 306 305 304
235 239 242 244 245 246 244 242 239 238 239 239 240 241 242 244 245 245 245 244 245 246 248 251 253 255 257 258 259 263 270 268 260 250 245 253 268 278 283 287 289 290 292 295 298 299 299 299 299 301 305 309 312 312 309 306 307 311 315 317 317 316 315 314 314 315 316 317 319 320 320 320 318 316 314 313 312 310 309 309 309 308 308 307 306 303
232 236 239 242 244 243 241 239 237 237 237 238 237 235 234 235 236 237 237 238 238 238 237 241 246 251 252 252 254 260 267 266 260 252 251 255 263 274 283 287 289 291 293 295 296 298 298 296 296 298 301 306 308 307 304 306 310 315 318 318 316 314 314 313 313 313 314 315 316 317 318 318 317 315 314 313 311 310 309 309 309 309 309 308 306 303
229 232 234 237 239 239 237 236 235 235 235 236 236 235 233 231 229 227 230 233 233 230 227 230 236 244 250 255 261 268 273 275 272 267 263 260 262 270 280 286 290 292 295 297 298 299 297 294 295 296 298 300 298 294 292 299 307 314 317 317 317 315 314 312 312 312 312 313 314 315 316 317 316 315 314 313 312 311 310 310 311 311 310 309 307 304
228 229 231 232 234 235 236 238 237 236 236 237 236 236 235 234 231 228 229 232 229 223 221 226 234 247 261 271 276 277 275 275 273 269 265 259 260 268 279 286 290 293 298 301 303 302 298 295 295 296 297 297 293 287 286 290 297 304 311 315 317 317 315 313 311 310 310 310 312 313 315 315 315 315 314 313 312 311 311 311 311 312 311 309 307 305
230 230 231 231 232 233 234 235 235 235 236 237 237 236 236 238 239 239 240 239 234 228 229 238 248 259 269 277 281 279 274 270 264 258 255 252 258 269 281 287 289 292 298 305 308 306 301 299 297 297 299 298 296 292 288 286 286 289 296 304 311 314 314 312 309 308 307 308 309 311 313 314 315 314 314 313 312 311 311 311 312 311 310 309 307 305
230 232 233 234 234 234 235 234 234 234 234 235 235 235 236 239 242 245 247 249 248 247 247 252 257 260 263 267 270 271 269 268 257 243 246 250 262 274 284 288 289 289 291 296 301 305 306 304 302 300 300 297 294 291 287 285 283 281 283 288 296 304 308 307 306 304 304 306 308 310 312 313 314 314 313 313 312 312 311 311 311 310 309 308 306 305
227 229 231 233 234 234 234 234 234 234 234 235 235 235 236 238 240 243 246 248 251 252 252 252 252 253 252 249 246 247 256 262 258 253 257 262 271 278 283 284 285 284 283 281 276 274 289 298 298 298 296 293 290 287 285 285 284 282 282 284 288 294 299 300 300 301 303 305 308 310 312 313 314 314 314 314 313 312 311 311 310 309 308 307 305 304
215 218 221 223 225 225 226 228 229 230 231 232 233 234 235 237 238 240 242 244 246 248 249 249 247 246 246 245 246 249 253 256 259 263 266 269 273 277 280 279 279 279 279 275 270 266 267 277 288 293 294 293 290 288 286 286 286 286 286 287 289 292 294 296 298 300 303 306 309 311 312 314 314 315 314 314 313 312 311 310 308 307 307 305 304 303
202 204 207 209 210 212 214 216 219 222 224 227 228 230 231 232 234 236 239 240 242 244 246 246 244 241 241 243 246 250 252 254 258 263 266 268 269 272 275 275 274 275 277 275 271 268 267 272 281 290 295 296 294 291 289 290 291 291 291 290 291 291 294 296 299 302 305 307 310 311 313 314 315 315 314 314 313 312 310 307 305 304 303 302 302 302
198 201 203 205 207 208 210 213 215 218 222 224 225 227 228 230 233 235 237 239 242 243 245 246 246 244 241 241 245 249 253 256 259 263 265 265 266 269 273 273 274 275 275 275 274 274 275 278 283 289 295 296 295 293 291 292 293 294 292 291 290 292 295 299 302 304 306 308 310 311 312 313 313 313 313 313 312 310 307 304 302 301 300 299 298 298
208 210 211 212 213 215 216 217 219 221 225 227 229 230 232 234 236 238 240 242 244 247 249 250 251 251 249 248 248 251 256 263 268 269 268 266 267 269 272 274 277 277 276 275 276 278 281 285 287 289 290 291 292 292 292 293 293 292 291 291 292 295 298 301 303 305 307 308 308 309 310 311 311 311 311 311 309 306 303 302 301 301 300 299 297 295
216 218 220 220 220 222 223 224 224 226 228 230 232 235 237 239 240 240 242 244 247 250 252 254 256 256 257 257 257 259 264 270 274 274 271 270 269 269 270 273 277 277 275 274 276 279 282 285 288 288 286 284 286 291 295 297 296 294 292 293 296 298 300 302 304 305 306 306 306 307 308 308 309 309 309 308 307 305 304 303 303 303 302 300 298 295
214 217 220 222 224 225 227 229 230 231 231 232 234 238 240 240 241 242 243 245 247 250 252 253 255 257 259 262 264 267 271 273 274 273 272 271 272 271 271 271 273 275 274 274 276 279 281 283 286 287 287 286 286 289 294 298 298 297 296 297 298 300 301 303 304 304 304 304 305 305 306 307 307 308 308 307 307 306 306 306 306 305 304 302 300 298
210 213 215 218 221 223 226 229 232 234 233 233 235 237 239 240 241 242 244 246 248 249 250 251 251 253 256 260 264 267 269 270 271 272 273 273 273 273 273 272 273 275 276 277 277 277 277 277 279 283 288 291 292 294 295 296 297 298 300 302 302 301 301 302 303 303 303 303 304 304 305 306 306 307 307 307 307 306 305 305 304 304 304 304 303 301
211 213 214 216 219 223 226 230 234 237 237 238 240 241 242 242 242 242 244 246 249 250 250 248 247 248 249 252 257 261 265 269 272 274 276 276 276 276 275 274 275 277 279 278 277 275 273 274 276 279 283 288 292 294 296 295 296 299 303 304 303 302 301 302 302 302 303 303 303 303 305 306 306 305 304 304 303 302 301 301 301 302 303 302 301 301
214 215 216 218 222 226 231 236 239 241 241 242 243 242 242 241 242 243 244 245 246 247 247 246 246 247 250 252 257 262 267 271 275 277 279 280 281 280 279 278 278 279 280 279 277 275 273 274 276 278 281 284 288 290 291 292 295 298 301 301 300 300 301 302 302 302 303 303 303 303 304 304 304 303 301 301 300 299 299 299 300 300 300 299 297 297
213 215 217 221 224 228 233 237 239 240 240 240 240 240 240 240 240 241 242 243 244 245 245 246 248 253 259 263 267 270 274 276 278 280 282 283 284 284 284 284 284 284 283 280 277 275 274 274 275 277 279 283 287 289 290 292 294 296 297 297 299 301 302 302 302 303 303 303 303 303 303 302 301 300 300 300 299 299 299 298 298 297 297 296 294 293
213 217 221 224 227 229 232 234 235 236 237 238 238 239 241 242 243 243 244 245 246 247 248 250 254 258 260 264 269 274 277 279 281 282 282 281 281 281 283 284 286 287 285 280 276 275 277 277 275 275 278 282 284 285 287 291 294 295 295 295 298 300 301 301 302 304 304 303 302 302 301 301 300 301 301 300 299 299 299 297 296 294 293 292 292 291
217 220 222 224 227 230 233 234 236 238 240 241 242 245 247 248 248 247 246 246 247 249 251 256 260 261 260 260 264 270 273 275 276 275 273 273 273 275 277 280 282 284 285 281 276 276 279 278 278 279 282 283 283 282 284 289 292 293 294 294 293 292 291 294 299 302 303 302 302 301 301 302 302 302 301 300 299 299 298 297 295 294 293 292 291 290
219 221 224 227 231 235 237 238 241 243 245 246 247 249 250 249 247 245 244 244 247 251 254 256 255 253 251 255 260 264 265 263 262 263 266 270 273 276 278 280 282 284 286 286 285 283 281 279 281 285 287 285 282 281 283 286 290 291 292 292 292 290 288 291 295 299 300 301 301 301 302 304 304 303 301 300 300 299 298 297 296 295 294 293 292 290
227 229 232 235 236 237 238 239 240 241 240 241 243 246 246 245 243 241 241 245 248 250 250 247 242 239 241 248 255 260 264 267 269 272 276 280 282 284 285 286 288 289 289 291 292 291 288 284 285 287 288 286 283 281 281 282 285 287 288 291 292 293 293 294 295 296 297 298 299 300 303 305 304 302 301 300 300 299 298 297 296 295 294 294 293 292
234 236 237 236 235 234 234 235 235 234 234 235 238 240 241 239 237 236 239 243 246 246 244 241 239 239 245 253 259 263 269 275 279 284 288 291 292 291 291 291 290 290 291 294 295 295 294 291 289 287 284 283 283 282 282 281 281 282 285 289 292 294 294 294 295 295 296 296 297 300 303 304 303 302 301 301 300 299 298 297 296 295 294 294 293 292
235 236 236 234 232 230 230 231 232 232 232 233 235 236 235 233 231 231 233 236 239 239 240 242 245 250 255 258 260 264 268 273 279 284 289 291 291 290 290 289 289 290 292 294 294 293 292 290 288 285 281 278 276 278 281 283 283 283 284 287 290 292 292 293 294 295 296 296 297 299 301 301 300 301 301 301 300 299 298 297 296 295 294 293 292 292
235 234 234 233 231 230 230 232 233 233 232 232 232 231 228 225 223 224 226 230 233 236 240 245 249 252 254 256 259 262 265 269 274 279 282 284 285 285 285 287 289 290 292 292 292 291 290 289 286 284 281 276 272 272 277 281 284 285 285 286 287 288 289 291 294 295 296 296 296 297 298 298 298 298 298 297 297 296 297 297 297 296 295 294 293 292
235 235 234 233 232 232 233 234 234 234 232 229 226 223 221 220 220 223 226 230 233 236 240 243 245 246 248 251 254 257 260 263 267 271 274 275 276 276 276 279 282 284 285 287 288 290 291 290 288 286 282 277 272 270 272 277 282 285 286 285 285 286 287 289 292 294 295 295 296 297 298 298 298 297 294 294 294 296 297 297 297 297 297 296 296 294
234 234 234 233 233 233 233 234 234 233 232 229 224 221 220 220 222 226 230 233 236 239 241 243 243 244 245 248 251 253 255 257 260 264 267 270 272 271 270 270 270 270 271 276 284 290 294 294 293 291 287 279 271 268 269 273 278 282 284 285 286 287 287 288 291 293 295 297 298 299 299 298 297 296 294 294 295 296 297 297 297 298 298 299 299 297